Temp
19 19 19 19 19 18 18 18 18 18 18 18 18 18 17 17 17 17 17 17 17 17 17 17 17 17 17 17 16 17 17 17 18 18 18 18 18 18 17 17 18 18 18 18 19 19 19 17 15 14 13 14 14 14 14 15 15 15 15 15 15 15 15
20 19 19 19 19 18 18 18 18 18 18 18 18 18 17 17 17 17 16 17 17 17 17 17 17 16 16 16 16 16 16 17 17 18 18 18 18 19 17 17 18 19 19 19 19 19 19 18 16 15 14 14 14 14 14 15 15 15 15 15 15 15 15
19 19 19 19 19 19 18 18 18 18 18 18 18 18 18 17 17 17 17 17 17 17 17 17 17 16 16 16 15 16 16 16 17 17 18 17 18 18 18 18 19 19 19 19 18 18 19 19 18 17 16 16 16 15 15 15 15 15 15 15 15 16 15
19 19 19 19 19 19 19 19 18 18 18 18 18 17 18 17 17 17 17 17 17 17 17 17 17 16 16 16 15 15 15 16 17 17 17 17 17 18 18 18 18 18 18 17 17 17 18 19 19 18 18 18 17 16 16 16 16 16 16 16 16 16 16
19 19 19 19 19 19 19 19 19 19 18 18 18 17 17 17 17 17 17 17 17 17 17 17 17 16 16 16 15 16 16 16 16 17 17 17 17 17 18 18 17 17 18 17 17 17 17 17 18 19 19 19 18 18 16 16 16 17 17 16 16 16 16
19 19 19 19 19 19 19 19 19 19 19 18 18 18 17 17 17 17 17 17 17 17 17 17 17 17 17 16 16 16 16 16 16 16 17 17 17 17 18 18 17 17 17 18 17 17 16 16 17 19 20 19 19 18 17 17 17 17 17 17 17 16 16
19 19 19 19 19 20 19 19 19 19 19 19 18 18 18 17 17 17 17 17 17 17 17 17 17 17 17 17 17 16 16 16 16 16 17 17 16 17 17 17 17 17 17 17 17 17 17 17 17 19 20 19 19 19 19 18 18 18 17 17 17 17 17
19 19 19 19 19 19 19 19 19 19 19 19 18 18 18 17 17 17 17 17 17 17 17 17 17 17 17 17 17 17 17 16 16 16 16 16 16 17 17 17 17 17 17 18 18 18 18 17 18 19 20 19 19 19 20 19 19 19 18 17 17 17 16
18 19 19 19 18 19 19 19 19 19 19 19 18 18 17 17 17 17 17 17 17 17 17 17 17 17 17 17 17 17 17 16 16 16 16 17 16 16 17 17 17 17 18 18 18 19 18 18 19 19 19 19 19 19 19 19 20 19 18 18 18 17 16
18 19 19 18 18 18 19 19 19 18 18 18 18 17 17 17 17 17 17 17 17 17 17 17 17 17 17 17 17 17 17 17 16 17 17 17 17 16 17 17 17 18 18 18 18 19 19 19 19 19 18 19 19 19 19 19 19 19 19 18 18 17 16
18 19 19 18 18 18 18 18 18 18 18 18 17 17 17 17 17 17 17 17 17 17 17 17 17 17 17 17 17 17 17 17 17 17 17 17 17 17 17 17 17 18 18 17 18 18 18 18 18 18 17 18 19 20 20 20 19 19 19 19 19 18 16
18 18 18 18 18 18 18 18 18 18 18 17 17 17 17 17 17 17 17 17 17 17 17 17 17 17 17 17 17 17 17 17 17 17 17 17 17 17 17 17 17 17 17 17 18 18 18 18 18 18 17 18 19 20 21 21 20 19 19 19 19 18 17
18 18 18 18 18 18 18 18 18 18 17 17 17 17 17 17 17 17 17 17 17 17 17 17 17 17 17 17 17 17 17 17 17 17 17 17 17 17 17 17 17 17 17 17 18 18 18 18 18 19 18 19 19 19 20 21 20 19 19 18 18 18 17
17 18 18 18 18 18 18 18 18 18 17 17 17 17 17 17 17 17 17 17 17 17 17 17 17 17 17 17 17 17 17 18 18 18 18 17 17 17 17 17 17 17 17 18 18 18 18 17 18 19 19 19 19 19 19 21 20 19 18 18 18 18 17
17 17 18 18 18 18 18 18 18 17 17 17 17 17 17 17 17 17 17 17 17 17 17 17 17 17 17 17 17 17 18 18 18 18 18 18 18 17 17 17 17 17 17 17 17 17 18 18 18 19 19 19 20 19 19 20 20 19 18 18 18 18 17
17 17 17 18 18 18 18 17 17 17 17 17 17 17 17 17 17 17 17 17 17 17 17 17 17 17 17 17 17 17 18 18 18 18 18 18 18 17 17 17 17 17 17 17 17 17 18 18 19 19 19 19 20 19 19 20 20 20 19 18 18 18 17
17 17 17 17 18 18 17 17 17 17 17 17 17 17 17 17 17 17 17 17 17 17 17 17 17 17 17 17 18 18 18 18 18 18 18 18 18 18 17 17 17 16 17 17 17 17 18 18 19 19 19 19 19 19 19 19 20 20 19 19 18 18 18
16 17 17 17 17 17 17 17 17 17 17 17 17 17 17 17 17 17 17 17 17 17 17 17 17 17 17 17 17 18 18 18 18 18 18 18 18 18 17 17 17 17 17 17 17 17 18 18 19 19 19 19 19 19 19 19 19 20 20 19 19 19 18
17 18 17 16 16 17 17 17 17 17 17 17 17 17 17 17 17 17 18 18 18 17 17 17 17 17 17 17 17 17 17 18 18 18 18 18 18 18 18 17 17 17 17 17 17 17 18 18 19 19 19 19 20 19 18 18 19 19 19 19 19 19 18
17 18 17 16 16 17 16 17 17 17 17 17 17 17 17 17 17 18 18 18 18 17 17 17 17 17 17 17 17 17 17 17 18 17 18 18 18 18 18 17 17 17 17 17 17 17 18 18 18 18 19 19 19 19 18 18 19 19 19 19 19 19 18
16 16 16 16 16 16 16 16 16 16 16 16 16 17 17 17 17 17 17 17 17 17 17 17 17 17 17 17 17 17 17 17 18 17 17 18 18 17 17 17 17 17 17 17 17 17 17 17 17 18 18 18 18 18 18 18 19 19 19 19 19 19 19
15 15 15 15 15 15 16 16 16 16 16 16 16 16 17 17 17 17 17 16 16 16 16 16 16 16 17 17 17 17 17 17 18 18 18 18 18 18 18 17 17 17 17 17 17 17 17 17 17 18 18 18 18 18 18 18 18 19 19 19 19 19 19
15 15 14 14 14 14 15 15 15 15 16 16 16 16 16 17 17 17 16 16 15 15 16 16 16 16 16 16 17 17 17 17 17 18 18 18 18 18 18 17 17 17 17 17 17 17 17 17 17 17 18 17 18 18 18 18 18 18 19 19 19 19 19
15 14 14 14 14 14 14 14 15 15 15 15 15 15 16 16 16 16 16 15 15 16 16 16 16 16 16 16 16 16 17 17 17 17 18 18 18 18 18 17 17 17 17 17 17 17 17 17 17 17 17 17 17 18 18 18 18 18 19 19 19 19 19
13 13 12 13 14 14 14 14 15 15 15 15 15 14 14 15 15 14 14 14 15 15 15 15 16 16 16 16 16 16 17 17 17 17 17 17 18 18 17 17 17 17 16 17 16 17 17 17 17 17 17 17 17 17 17 17 18 18 18 19 19 19 19
12 12 13 13 13 14 14 14 14 14 14 13 14 13 13 14 13 13 13 14 14 14 14 14 15 15 16 16 16 16 17 17 17 17 17 17 17 17 17 17 17 17 16 16 16 16 17 17 17 17 17 17 17 17 17 17 17 17 17 18 18 19 19
11 11 12 12 12 12 12 12 12 12 12 12 13 13 13 13 13 12 13 13 13 13 13 14 14 15 15 15 15 16 16 16 16 16 16 16 16 16 16 17 17 17 17 16 16 16 16 16 16 16 16 16 16 16 17 17 17 17 17 17 17 17 18
10 10 10 11 11 11 11 11 11 11 12 12 12 12 12 12 12 12 12 12 12 13 13 13 13 14 14 15 15 15 15 15 16 16 15 15 15 16 16 16 16 17 17 17 16 16 16 16 16 16 16 16 16 16 16 16 16 16 16 16 16 16 17
9 9 9 10 11 11 11 10 11 11 11 12 12 12 11 11 11 11 11 11 11 12 12 12 13 13 14 14 14 15 15 15 15 15 15 15 15 15 15 15 16 16 16 16 16 16 16 16 16 16 16 16 16 17 17 16 16 16 16 16 16 16 16
8 8 9 9 9 10 10 9 10 10 11 11 11 11 11 10 10 10 10 10 10 11 12 12 13 13 13 14 14 14 15 15 15 15 15 15 15 15 15 15 15 15 15 15 15 14 15 15 15 15 16 16 16 17 17 16 16 16 16 16 16 16 16
8 8 8 8 8 8 9 9 9 9 9 10 10 10 10 10 10 10 10 10 10 10 11 12 12 13 13 14 14 14 14 15 15 15 15 15 15 15 15 14 15 15 14 14 14 14 14 14 14 15 15 16 16 16 16 16 16 16 16 16 16 15 15
8 8 8 8 7 8 8 8 8 9 9 10 10 10 10 10 10 9 10 10 10 9 10 11 12 12 13 13 13 13 13 14 14 14 14 15 15 15 15 14 14 14 14 14 14 14 14 14 14 14 14 15 16 16 16 16 15 15 15 15 15 15 15
6 7 7 7 7 7 7 7 8 8 9 10 10 10 10 10 9 9 9 9 9 9 9 9 11 11 11 12 12 12 12 12 12 12 13 14 14 14 15 14 13 13 13 13 13 13 13 13 13 13 13 14 15 15 15 15 15 15 14 14 14 14 14
6 6 6 6 6 7 7 7 7 8 8 8 9 9 9 9 9 9 9 8 8 9 9 8 9 10 10 10 11 11 10 10 10 10 11 12 13 14 14 14 13 12 12 12 12 12 12 12 12 12 12 13 14 14 14 14 15 14 14 13 13 13 13
6 6 6 6 6 6 6 7 7 7 7 8 8 8 8 9 9 9 9 8 8 8 8 8 8 9 9 9 9 9 8 8 9 9 9 11 12 12 13 12 12 11 10 11 11 11 11 11 11 11 11 12 12 12 12 12 13 13 13 14 14 14 14
5 5 5 5 5 5 6 6 7 7 7 8 8 8 8 8 9 9 9 9 8 7 7 7 7 7 7 7 7 7 7 7 7 7 7 9 10 10 11 10 10 9 9 10 10 10 11 11 11 11 11 11 11 11 10 10 10 10 12 13 13 13 14
5 5 5 5 6 6 6 6 7 7 7 8 8 8 8 8 8 9 9 9 9 8 7 7 7 6 6 6 6 6 6 6 6 6 6 7 8 8 9 8 7 8 8 8 9 9 10 10 11 11 11 11 11 10 9 9 9 9 10 11 12 13 13
Height
816 818 820 822 824 825 826 828 829 830 832 833 834 835 836 836 837 837 838 839 840 840 841 842 843 844 845 846 847 848 849 849 850 850 850 852 852 852 853 854 853 852 852 852 852 851 853 859 864 866 868 868 869 869 870 870 871 871 873 874 875 876 876
816 817 819 821 823 825 826 828 829 830 831 832 834 834 835 836 837 837 838 838 839 840 841 842 843 844 844 845 846 847 849 849 850 850 850 851 851 850 852 853 851 851 850 851 852 851 851 856 861 865 868 868 869 871 871 871 872 873 874 874 875 876 877
815 817 819 820 822 824 826 828 829 830 831 833 834 834 835 836 837 837 838 838 839 839 840 841 842 843 843 845 846 847 848 849 849 850 850 850 850 850 851 851 850 850 850 850 852 852 852 853 856 862 865 866 868 871 872 872 873 874 875 875 876 877 878
815 816 818 820 822 824 825 827 829 830 831 832 833 834 835 836 836 837 837 838 839 839 840 840 841 842 843 844 845 846 848 848 849 850 850 850 850 850 850 850 849 850 850 851 853 854 853 852 854 859 863 864 866 869 871 873 873 874 875 876 876 877 878
815 816 818 820 821 823 825 826 828 829 831 832 833 834 835 835 836 837 837 838 838 839 839 840 841 841 842 843 844 846 847 848 849 849 850 850 850 850 850 850 850 850 851 852 853 854 855 856 855 857 860 862 864 867 871 873 873 874 875 876 877 877 878
816 818 819 821 822 823 825 826 827 829 830 831 832 833 834 835 836 837 837 838 838 839 839 840 840 841 842 842 844 845 846 847 848 849 849 849 850 850 850 850 851 851 852 853 853 853 856 858 857 856 858 860 863 866 870 872 872 874 875 876 877 877 878
816 818 820 821 823 824 825 826 827 828 830 831 832 833 834 835 836 836 837 837 838 839 840 840 840 841 841 842 843 844 845 846 847 848 848 848 849 849 850 850 850 851 851 852 853 853 855 857 857 856 857 860 862 865 867 869 871 872 874 875 876 877 878
815 817 819 821 822 824 825 826 828 829 830 831 832 833 834 835 836 836 836 837 838 839 840 840 840 841 841 842 843 844 845 846 847 847 848 848 848 849 849 850 849 850 851 851 852 853 853 855 855 856 857 859 862 863 865 867 869 870 873 875 876 877 878
813 815 817 820 822 823 825 826 828 829 830 831 832 833 834 835 835 836 836 837 838 839 840 840 840 841 841 841 842 843 844 845 846 846 847 847 848 848 849 849 849 849 851 851 852 852 852 853 854 855 857 858 860 862 864 865 867 869 872 874 875 877 878
812 815 816 819 821 823 825 826 828 829 830 831 832 833 834 835 835 836 836 837 838 839 840 840 841 840 841 841 841 842 843 844 845 845 846 846 847 848 848 849 849 849 850 851 852 852 852 853 853 854 858 859 859 860 862 864 866 869 871 873 874 876 878
813 815 817 819 821 823 825 826 828 829 830 831 832 833 834 834 835 836 836 837 838 839 840 840 841 840 840 841 841 841 842 843 844 844 845 845 846 847 848 848 849 849 850 851 852 852 853 853 853 855 858 859 859 858 858 861 865 868 870 872 873 875 877
814 815 817 819 821 822 824 826 827 829 830 831 832 833 833 834 835 835 836 837 838 839 840 840 841 840 840 840 840 841 841 842 842 843 844 844 845 846 847 848 849 849 850 851 851 852 853 854 854 855 857 858 859 859 857 859 863 867 870 871 872 875 877
814 815 817 819 821 822 824 826 827 828 829 830 831 832 833 833 834 835 836 837 838 839 840 840 841 840 840 840 840 841 841 841 842 842 843 843 844 845 846 847 848 849 850 851 851 852 853 854 855 855 857 859 859 860 859 859 862 867 870 871 873 875 876
813 815 816 819 821 822 825 826 827 828 828 830 830 831 832 833 834 835 836 837 838 839 840 840 840 840 840 840 841 841 841 841 842 842 843 843 843 844 845 846 847 848 849 850 851 852 853 855 856 856 858 859 859 861 861 859 862 866 870 872 873 874 876
812 815 817 819 821 823 825 826 827 828 828 829 830 831 832 833 834 835 836 837 838 839 839 840 840 840 840 841 841 841 842 842 842 842 843 843 843 844 844 845 847 848 849 850 851 852 853 854 855 856 857 858 859 861 861 860 862 866 869 871 872 873 875
812 815 817 819 821 823 824 826 827 827 828 829 830 831 832 833 834 835 836 837 837 838 839 839 840 840 840 841 841 841 842 842 842 842 843 843 843 844 844 845 846 847 849 850 851 852 853 854 855 856 857 858 859 860 861 861 862 864 867 870 871 872 873
812 814 816 819 821 822 824 825 826 827 827 828 829 830 831 833 834 835 836 837 837 838 839 839 840 840 840 841 841 841 842 842 842 842 843 843 843 844 844 844 846 847 848 850 851 852 853 854 855 856 857 858 859 860 861 862 862 863 865 868 869 870 871
809 811 814 817 820 822 823 825 826 826 827 828 829 830 831 832 834 835 836 836 837 838 838 839 839 840 840 841 841 841 842 842 842 843 843 843 843 844 844 844 845 847 848 850 851 852 853 854 855 856 857 858 859 860 862 863 863 863 864 866 868 869 870
806 809 812 816 819 821 823 824 825 826 827 828 828 830 831 832 834 834 835 836 837 838 838 839 839 840 840 841 841 842 842 842 842 843 843 843 844 844 844 844 845 846 848 849 850 852 853 854 855 856 857 857 858 859 861 862 863 864 864 864 866 867 869
805 808 811 815 818 820 822 824 825 826 827 828 828 829 831 832 833 834 835 836 837 838 838 839 839 840 840 841 841 842 842 842 843 843 843 843 844 844 844 844 845 846 847 848 849 851 852 854 855 855 856 857 857 859 860 861 862 863 864 864 864 866 867
807 808 811 814 817 819 822 824 825 826 827 828 829 830 831 832 833 834 835 836 837 838 838 839 839 840 840 841 841 842 842 843 843 843 844 844 844 845 845 845 845 846 847 848 849 850 851 853 854 855 856 857 858 858 859 860 861 861 862 863 863 863 864
808 809 811 815 817 819 821 823 825 826 828 829 830 830 831 832 834 835 836 836 837 838 838 839 839 840 840 841 841 842 842 843 843 843 844 844 845 845 845 845 846 846 847 848 849 850 851 852 854 855 855 856 857 858 858 859 859 860 860 860 861 862 862
808 810 813 815 817 819 821 823 825 826 828 829 830 830 831 833 834 835 836 837 837 838 838 838 839 840 840 841 841 842 842 843 843 843 844 844 845 845 845 846 846 846 847 847 848 849 851 852 853 854 855 855 856 856 857 858 858 858 858 858 859 859 860
809 811 814 815 816 819 821 823 824 826 827 828 829 830 832 833 834 835 836 836 837 837 838 838 839 840 840 841 841 842 842 843 843 844 844 844 845 845 845 846 846 847 847 848 848 849 850 851 852 853 854 854 855 855 856 856 856 857 856 856 856 857 858
810 811 814 815 817 819 821 823 825 826 827 829 830 831 832 833 834 834 835 836 836 837 837 838 838 839 840 840 841 841 842 843 843 844 844 844 844 845 845 846 846 847 847 848 848 849 850 850 851 852 852 853 853 854 855 855 855 855 856 855 855 855 856
812 813 815 817 819 820 822 824 826 828 829 830 831 832 833 834 834 834 834 836 836 837 838 838 838 839 839 839 840 841 842 843 843 843 844 844 845 845 846 846 846 847 847 848 848 849 850 850 850 851 851 851 852 852 853 854 854 854 855 855 855 854 854
814 816 817 818 820 822 824 825 827 829 831 832 832 833 834 834 834 835 835 836 837 837 838 838 839 839 839 839 840 840 842 842 843 843 844 844 844 845 846 846 846 847 847 848 848 849 850 850 850 850 850 850 851 851 851 852 852 853 853 854 853 853 853
816 818 819 820 822 823 825 826 828 830 831 832 833 833 834 834 835 836 837 837 837 838 838 839 839 839 839 840 840 840 841 842 842 843 843 843 844 844 845 845 846 846 846 847 847 848 848 849 849 849 849 849 850 849 849 849 850 851 851 851 852 852 852
819 821 822 823 824 825 827 828 829 830 832 833 833 833 834 835 835 837 838 838 838 838 839 839 839 839 840 840 840 841 841 841 842 842 842 842 843 843 844 844 844 845 845 845 845 845 846 847 847 847 847 847 847 847 847 847 847 848 848 849 849 849 849
823 824 825 826 826 828 829 830 830 831 833 833 833 834 834 835 836 837 838 839 839 839 839 839 839 839 840 840 841 841 842 842 842 842 842 842 842 842 842 843 843 844 844 844 843 843 844 844 845 845 845 844 845 844 844 844 844 844 845 845 846 846 846
826 827 828 829 829 830 831 832 832 833 833 834 834 835 836 836 837 837 838 839 839 839 839 839 839 839 840 840 841 841 842 842 842 842 842 842 842 842 842 841 841 842 842 841 841 841 842 842 843 843 843 842 842 842 842 842 841 841 841 842 842 842 842
829 829 830 831 832 833 833 834 834 834 835 835 836 837 837 837 838 837 838 839 839 839 840 839 839 839 839 839 840 841 841 842 842 842 842 842 842 842 841 841 840 840 840 840 839 840 840 840 840 841 841 840 840 839 839 839 839 838 838 838 838 838 838
831 832 832 833 833 834 834 835 835 835 836 836 837 837 837 837 838 838 838 838 838 839 839 838 838 838 838 839 839 840 841 841 841 841 841 841 841 841 841 840 839 839 839 838 838 838 838 838 838 838 838 838 837 837 837 837 836 836 835 835 835 835 835
832 833 834 835 835 835 835 835 835 835 836 836 837 837 838 838 838 838 838 839 838 838 838 838 838 838 838 838 838 839 840 840 839 840 840 840 840 839 839 840 838 837 837 837 836 836 836 836 836 835 835 835 835 834 834 834 833 833 833 833 833 832 832
833 834 834 835 835 836 836 835 835 835 836 836 837 837 838 838 839 839 839 839 839 838 838 838 838 838 837 837 837 838 838 838 838 839 839 839 839 838 838 838 837 835 834 835 834 834 833 833 833 832 832 832 832 832 831 831 831 831 830 830 829 829 829
835 836 836 836 836 837 837 836 836 836 836 837 837 838 838 838 838 839 839 839 839 839 839 838 838 837 837 837 837 837 837 837 837 838 838 838 838 837 837 836 834 832 832 832 832 831 831 830 829 829 829 829 829 829 829 828 828 828 827 827 826 826 826
838 838 838 838 838 838 838 838 838 838 838 838 838 838 838 838 838 838 839 839 839 839 839 838 838 837 837 837 836 836 836 836 836 836 837 837 836 836 835 833 832 830 830 830 829 829 828 828 827 826 826 826 826 826 826 825 825 825 824 824 823 822 822
Wind_Speed
15 15 15 14 13 13 13 13 12 11 10 9 9 8 8 8 8 8 9 10 9 9 8 9 9 9 9 9 9 9 8 8 7 6 7 8 8 7 6 5 3 3 7 7 5 5 5 5 5 6 7 8 8 8 8 7 8 8 7 7 8 9 9
16 15 15 14 14 14 14 13 12 11 10 9 8 8 8 8 8 8 9 9 9 9 9 9 10 9 9 9 9 9 8 7 7 6 6 7 8 7 7 8 6 6 7 7 6 6 4 6 6 5 8 9 9 8 8 8 7 7 7 7 8 8 9
16 16 16 15 15 14 14 13 12 11 10 10 9 9 9 8 8 9 9 9 9 9 9 9 10 10 10 9 9 9 8 7 7 6 6 7 7 6 7 9 8 8 7 6 6 7 7 7 6 8 10 10 9 8 8 8 8 8 8 8 8 8 8
17 17 17 17 16 15 15 14 13 11 10 10 9 9 9 9 9 9 9 9 9 8 9 9 10 10 10 10 9 8 8 8 7 7 6 6 6 7 7 8 7 6 3 2 3 5 4 5 7 9 10 10 10 10 9 8 8 9 9 8 8 8 7
17 18 17 17 17 16 16 15 13 12 11 10 9 9 9 9 9 9 9 8 8 8 8 8 9 9 10 10 10 9 9 8 7 8 8 7 7 7 8 8 7 6 3 1 3 4 2 5 10 9 10 11 9 10 11 9 9 9 9 8 8 7 7
17 17 17 17 16 16 15 15 13 12 11 10 10 9 9 9 9 9 9 8 8 8 7 7 8 8 9 9 10 9 9 9 8 9 9 8 7 7 7 8 7 7 5 4 5 4 3 8 12 9 10 11 9 10 12 10 10 9 8 8 8 7 7
17 16 16 15 15 14 14 14 13 12 11 11 10 9 9 9 8 8 9 8 8 8 7 6 6 7 8 8 8 9 9 8 8 8 8 7 8 7 7 7 8 7 6 5 5 5 7 11 11 10 10 10 9 11 11 11 11 10 8 8 7 8 8
19 17 16 15 15 13 13 13 12 11 11 11 10 10 9 9 7 7 8 9 10 9 8 6 5 5 6 7 8 9 8 8 8 8 8 7 8 8 7 8 8 7 6 6 7 8 10 10 10 11 10 8 8 9 9 9 10 9 9 9 8 8 9
21 19 17 16 15 14 13 13 12 11 10 10 10 10 9 8 7 8 8 10 10 9 8 6 5 5 6 7 8 9 9 8 9 9 8 8 8 8 8 8 8 8 7 7 7 8 9 8 8 10 11 9 7 6 6 7 7 8 10 10 9 9 10
21 18 17 17 16 14 14 13 12 11 10 10 10 10 9 8 8 8 8 9 10 8 7 5 5 5 6 7 8 9 9 9 9 9 8 8 8 7 8 8 8 7 7 7 7 7 8 7 8 10 11 11 7 5 6 5 6 8 10 10 10 10 11
20 17 17 17 16 15 14 13 12 12 11 10 10 10 10 9 9 9 8 8 9 8 7 5 5 5 7 8 8 8 9 9 9 9 8 8 8 7 8 8 8 7 7 7 7 7 8 8 9 12 14 12 6 5 7 6 5 8 10 10 10 12 13
20 18 18 18 17 16 15 14 13 13 12 11 10 10 11 10 10 9 8 8 9 8 7 5 5 6 7 8 8 7 7 8 8 8 8 8 7 8 8 9 9 8 7 7 6 7 8 8 9 11 13 10 3 3 7 7 6 8 10 10 9 12 14
17 17 19 19 17 16 15 15 14 14 13 11 11 11 11 10 10 9 9 9 9 8 6 6 5 6 7 7 7 6 6 7 7 8 8 7 7 7 8 10 10 8 8 8 7 7 7 8 9 8 9 7 3 3 6 7 8 9 10 10 10 12 14
17 18 20 19 17 16 15 15 14 14 13 11 11 11 10 10 10 9 9 9 10 8 6 6 6 6 7 7 7 7 6 6 6 7 7 6 6 6 7 8 9 8 9 9 8 8 8 8 9 9 9 8 5 5 6 7 11 11 9 9 10 11 14
20 20 20 18 16 15 15 15 14 13 12 11 11 10 10 11 10 9 9 10 10 8 7 6 6 6 7 8 7 7 6 6 6 6 6 6 6 6 5 7 8 9 10 9 7 9 9 10 10 10 11 9 7 8 8 7 11 12 10 10 10 11 13
21 20 19 17 16 15 15 15 14 13 12 11 10 10 10 10 10 9 10 10 10 8 7 6 6 6 7 8 8 7 6 6 6 6 6 6 6 6 6 6 8 9 10 9 9 10 9 10 12 11 11 9 8 9 8 6 9 12 11 11 11 11 12
18 17 16 15 16 16 15 14 14 13 13 11 10 10 10 10 9 9 10 11 10 8 7 7 6 6 7 7 7 7 7 7 7 6 7 6 5 5 6 7 8 10 11 10 10 10 10 12 12 11 11 10 9 9 8 6 7 9 10 11 11 10 12
18 20 19 15 15 16 15 14 14 13 12 12 11 11 10 10 9 10 10 10 10 8 7 7 7 7 7 6 6 7 7 7 7 7 6 6 5 5 6 8 9 11 11 11 11 10 11 13 12 11 12 11 10 10 9 8 7 6 8 9 10 10 10
24 26 22 16 15 16 15 14 13 12 12 12 11 11 10 9 9 9 10 9 9 8 7 6 6 7 7 7 6 6 6 6 6 6 6 6 5 5 5 7 9 11 11 11 11 11 12 13 11 10 11 10 10 10 9 10 9 7 7 8 9 10 10
26 28 23 18 16 15 15 14 13 12 12 12 12 11 11 10 9 9 9 8 8 7 7 6 6 6 7 6 6 5 6 6 6 5 5 5 5 5 5 6 9 11 10 10 11 10 11 12 11 10 9 9 8 9 9 10 10 9 9 9 9 10 11
23 26 23 18 16 16 15 14 13 12 13 12 12 11 11 10 9 9 8 8 7 6 6 5 5 5 5 6 5 5 5 6 6 6 5 4 4 4 5 6 7 8 9 9 9 9 9 10 10 9 9 8 8 9 9 9 10 10 11 10 10 10 11
18 20 19 16 16 16 16 14 14 13 13 12 11 10 10 10 9 8 8 7 6 5 5 5 5 5 4 5 5 4 4 5 6 6 6 5 4 4 5 5 5 6 7 8 8 8 8 8 8 8 7 6 7 8 8 8 9 9 10 11 10 10 11
17 18 18 17 16 17 16 15 13 13 12 11 10 9 9 8 8 8 8 7 6 5 5 6 7 6 5 4 4 3 3 4 5 6 6 6 5 5 5 5 5 5 6 5 5 5 5 5 5 6 6 6 6 7 8 7 8 8 9 9 9 10 11
19 18 17 18 20 19 18 17 15 13 11 10 9 8 8 8 8 9 9 8 7 8 7 7 7 7 6 5 4 3 3 4 4 5 6 5 6 6 5 5 4 4 4 3 3 2 2 3 3 4 5 5 6 7 7 7 7 7 8 8 9 9 10
20 19 17 20 22 19 16 14 11 9 8 8 8 8 8 9 10 11 11 11 10 9 8 7 7 6 6 5 5 4 3 4 4 4 5 4 4 5 5 4 4 3 3 3 3 2 3 4 4 5 6 6 7 8 8 8 8 7 7 8 9 10 10
22 21 20 19 18 16 13 10 9 8 9 10 11 10 11 11 12 13 14 13 13 12 10 8 7 6 5 5 6 5 3 3 4 4 3 3 3 3 3 3 3 3 3 4 4 4 5 5 6 7 8 9 10 10 11 11 11 11 10 10 11 11 11
20 18 18 18 17 16 16 15 14 12 11 12 12 12 12 13 13 13 13 14 14 12 11 10 8 6 5 4 5 5 3 2 3 3 2 2 2 2 3 3 4 4 4 5 5 5 5 5 6 7 8 9 10 11 12 12 13 13 13 13 13 13 12
21 19 19 21 21 20 20 19 16 14 13 15 16 14 14 15 14 13 12 12 13 12 11 9 7 6 5 4 4 4 2 1 2 2 2 2 3 3 3 4 5 5 5 6 7 7 7 7 7 7 9 10 10 11 12 13 14 13 14 15 15 14 13
21 20 21 22 22 21 20 19 17 16 17 17 18 17 16 15 14 12 11 10 11 11 10 8 7 6 5 4 4 3 1 1 1 2 2 2 3 3 4 4 5 6 6 7 8 10 9 9 9 9 10 11 12 12 13 14 16 17 16 17 17 16 17
20 19 19 20 20 19 18 17 16 16 15 16 16 16 15 14 12 12 11 9 8 8 7 7 5 4 4 4 3 2 0 1 1 2 2 3 3 3 4 5 5 5 5 6 9 10 10 11 10 10 12 13 13 14 15 16 19 21 20 20 21 21 22
22 21 20 19 18 17 17 16 16 13 12 13 13 12 12 12 11 11 10 9 7 5 4 4 3 2 2 3 3 1 1 2 2 2 3 4 4 5 6 8 8 6 5 7 11 12 12 12 12 11 13 14 15 16 16 16 19 23 24 24 24 24 25
18 19 19 18 16 14 13 13 12 10 8 9 9 8 9 9 9 8 7 7 6 4 2 0 1 1 2 3 2 1 2 3 3 3 4 4 4 5 6 8 10 10 9 11 13 13 13 14 13 12 13 15 16 17 17 16 16 19 22 23 23 25 26
15 14 15 14 12 11 11 10 9 8 7 7 7 7 7 7 7 6 5 4 4 3 2 2 4 4 4 5 4 2 2 3 3 3 4 5 5 6 6 6 8 11 12 13 14 14 14 15 16 15 14 15 17 16 16 17 17 17 17 17 18 20 21
15 13 12 11 10 10 10 9 8 7 7 6 7 6 5 5 5 5 4 3 2 1 1 2 5 6 6 6 6 3 2 3 5 5 6 7 7 7 6 5 5 9 13 14 15 15 15 16 17 18 18 18 19 18 17 17 18 18 18 16 16 17 16
15 14 13 11 10 9 9 9 8 7 6 6 6 6 4 4 3 3 3 3 2 1 1 2 4 6 6 7 7 5 3 6 8 7 7 8 7 7 7 6 7 12 15 16 16 17 18 18 18 20 21 22 22 22 21 19 17 17 18 18 18 18 17
12 11 11 10 9 8 7 7 7 7 6 5 4 4 4 3 3 3 2 2 2 1 1 3 4 6 5 5 6 5 5 8 9 7 7 8 8 9 8 7 10 16 17 17 18 18 18 19 20 21 22 22 22 22 22 22 20 19 20 20 19 19 19
9 9 8 7 7 7 6 5 5 5 4 4 4 4 3 3 3 2 2 1 1 1 1 1 3 6 8 6 4 4 5 6 6 6 7 9 9 9 9 10 14 17 17 17 18 18 19 20 21 22 22 22 23 21 20 21 22 21 20 20 20 21 21
Wind_Direction
178 174 172 171 167 164 164 162 163 166 170 173 171 172 171 167 171 172 170 170 170 170 171 174 175 176 179 172 172 181 187 187 189 197 190 188 196 195 196 212 221 207 189 190 205 190 162 140 122 99 96 112 114 116 124 125 130 124 107 107 110 108 107
177 171 168 167 165 163 162 161 162 163 166 170 171 173 170 165 167 171 171 170 170 169 171 174 173 173 173 168 172 180 183 186 188 200 198 195 208 200 187 203 201 176 181 186 203 213 176 151 151 135 125 123 115 117 122 120 122 122 116 113 113 111 108
173 169 166 165 165 164 161 161 162 163 164 168 171 173 170 168 169 170 170 169 169 170 172 173 172 173 173 169 173 178 178 183 186 196 200 197 209 209 196 203 199 189 193 182 189 205 186 165 156 147 151 145 128 126 129 126 129 133 129 120 117 116 111
170 169 166 164 165 164 163 162 162 164 163 165 167 167 168 168 167 167 167 167 168 169 171 174 174 174 174 170 171 174 177 184 187 192 200 201 207 209 205 211 221 222 208 138 196 223 203 158 146 150 158 151 139 139 142 141 141 140 136 130 127 121 116
168 169 167 166 166 164 164 163 163 164 162 162 163 164 168 167 164 165 164 165 168 169 170 172 171 171 171 170 170 173 178 185 189 192 197 201 205 209 209 212 229 246 252 191 202 241 284 139 147 153 155 150 146 144 146 149 147 143 141 139 134 129 126
168 171 169 166 165 165 164 164 164 164 162 163 164 164 167 167 166 168 166 167 169 170 171 171 170 171 171 169 168 169 174 181 186 193 199 199 202 211 215 210 208 213 218 211 197 209 215 170 160 157 155 152 147 143 149 155 149 145 147 145 141 137 133
170 173 170 166 167 166 165 166 165 164 163 163 163 162 163 165 168 171 173 172 170 168 169 169 170 175 176 172 168 164 168 177 182 193 202 198 199 209 217 217 207 196 195 201 192 187 200 188 169 158 157 153 148 150 157 159 155 154 153 151 148 141 135
173 173 169 167 168 167 166 166 165 162 161 161 161 160 161 164 165 169 174 170 165 164 163 163 167 177 183 177 171 167 170 177 180 192 201 196 199 205 210 220 215 201 195 198 193 195 204 194 169 163 163 155 154 157 157 158 161 158 152 150 150 145 140
172 170 168 166 168 168 165 165 164 161 157 156 157 159 161 164 163 164 166 161 159 157 155 160 168 177 181 170 166 169 170 177 182 189 196 194 196 198 201 217 219 205 201 204 201 200 203 197 176 168 165 165 168 161 155 162 161 149 150 154 149 147 148
172 169 168 166 166 167 163 162 161 156 154 153 154 159 162 160 159 159 158 156 155 153 151 157 169 177 179 168 164 167 166 171 179 184 191 190 188 189 192 206 213 204 200 204 203 193 191 194 179 159 162 176 182 174 168 166 158 152 158 162 152 149 153
176 172 170 168 167 165 162 162 161 156 153 153 153 157 158 155 155 157 157 156 155 151 147 150 165 178 182 174 167 164 163 167 174 178 184 182 177 177 181 193 204 203 197 198 198 188 186 193 179 165 177 191 198 196 183 164 155 157 160 164 157 155 158
180 173 170 170 169 167 165 164 164 160 156 154 155 155 155 154 154 155 158 160 156 152 148 150 163 174 181 176 169 165 165 169 173 173 172 172 171 171 175 184 195 200 196 194 193 185 182 187 183 176 184 189 181 201 191 166 151 153 158 163 155 157 163
178 173 170 172 172 169 169 168 166 164 159 156 156 156 155 155 154 155 159 162 160 158 154 154 157 163 168 166 160 159 163 169 174 169 163 162 162 168 174 181 190 195 194 191 187 184 180 180 184 178 177 178 151 172 195 171 149 148 156 161 154 159 167
175 174 172 173 173 170 170 171 168 165 161 158 157 157 158 156 155 157 159 162 163 161 157 155 154 151 150 145 141 145 153 164 168 161 158 157 156 162 170 177 184 186 188 189 181 179 175 172 180 178 174 181 164 163 192 171 149 147 149 158 162 163 169
177 176 175 174 172 170 172 172 170 166 161 158 158 159 157 156 156 158 160 162 162 159 155 152 154 152 146 141 139 140 147 156 154 147 152 154 151 157 164 171 177 177 182 183 172 173 176 175 181 177 172 177 160 159 182 165 148 153 155 162 169 166 171
180 177 177 175 172 171 172 171 170 167 161 158 158 159 157 156 157 158 160 162 159 157 154 149 152 152 148 149 148 145 144 144 141 140 145 144 145 156 161 163 168 171 175 174 167 173 181 182 181 175 172 174 160 158 173 164 152 158 162 168 176 175 176
170 168 170 175 174 172 171 170 170 166 160 158 157 156 156 157 157 156 160 162 159 157 154 154 157 152 149 151 149 147 145 140 137 137 134 131 132 147 160 163 165 169 173 171 170 178 185 183 180 175 175 178 171 165 168 172 170 166 165 172 183 187 181
159 163 166 170 172 171 168 166 167 163 158 157 154 153 154 157 157 156 159 161 160 159 156 158 163 159 154 150 147 148 147 142 140 135 128 121 114 122 149 161 162 166 170 170 173 180 181 180 180 177 179 182 180 175 175 185 191 185 180 179 183 192 188
165 167 169 168 168 169 165 160 160 157 154 152 149 149 151 152 154 156 159 161 160 158 156 155 159 163 163 158 154 152 148 146 144 139 135 129 115 107 126 150 159 164 168 171 176 180 178 180 185 183 185 189 184 178 184 196 202 203 207 201 191 194 197
161 164 171 172 166 164 159 154 152 150 149 146 144 144 143 143 146 147 150 155 154 152 152 151 151 159 166 165 164 161 159 161 156 150 147 140 128 111 110 134 155 165 170 172 176 180 179 182 189 189 189 194 191 186 191 203 209 210 216 221 211 203 204
159 162 169 166 156 151 149 149 148 145 144 142 140 140 139 138 137 136 137 141 143 144 148 148 144 149 160 163 163 163 167 176 175 168 165 155 143 128 114 120 140 158 169 174 178 185 187 186 191 195 194 197 202 205 209 213 216 217 219 223 222 216 214
153 154 151 142 136 136 137 140 141 142 143 142 140 139 140 141 140 137 137 134 132 132 137 147 150 148 147 153 160 162 165 180 186 183 180 174 162 151 135 122 123 138 151 161 172 182 188 189 193 199 202 206 212 217 222 221 220 223 224 223 224 225 223
140 140 137 130 126 128 132 133 133 134 136 136 136 137 140 146 147 146 141 134 141 160 169 170 170 165 157 152 157 161 159 170 183 184 183 179 172 167 155 135 125 121 124 134 149 162 175 186 194 201 207 211 212 213 217 218 217 221 223 222 223 224 227
132 133 133 132 132 133 136 138 136 135 135 134 133 130 131 138 137 132 128 131 154 176 181 182 184 182 180 171 157 161 163 161 168 176 177 176 175 176 171 157 144 128 120 127 132 149 179 197 212 224 228 226 224 219 218 220 220 220 222 226 225 222 226
127 130 131 134 137 138 141 142 145 152 160 163 155 136 124 123 121 120 123 128 136 141 144 157 170 179 187 183 167 161 165 164 165 169 172 173 172 171 171 174 173 165 174 186 191 215 230 232 234 239 244 245 243 237 234 234 234 234 237 241 240 236 235
120 124 128 131 136 143 148 146 146 154 159 159 152 136 123 116 113 118 127 127 122 119 119 121 129 142 159 171 169 160 158 176 178 176 179 181 177 171 178 190 195 207 226 231 235 238 240 245 251 251 250 252 252 249 246 242 240 243 248 250 252 250 246
110 112 120 127 131 135 137 131 126 128 130 130 127 118 114 113 108 110 119 121 119 117 116 112 113 118 118 130 150 148 143 167 175 175 183 193 207 210 213 223 227 231 242 248 246 241 242 248 254 254 254 254 253 253 254 252 250 249 249 251 254 256 256
111 109 116 126 128 127 128 124 119 116 120 124 121 114 112 114 110 105 107 115 118 115 112 113 118 122 120 125 136 129 125 162 178 188 188 192 210 214 218 233 241 242 245 246 242 244 250 252 249 249 251 250 248 249 251 252 254 256 255 255 256 256 256
108 108 114 121 124 125 125 120 116 118 121 122 121 118 114 110 105 99 98 103 110 112 113 115 120 123 128 137 131 112 115 193 200 222 216 217 229 225 224 232 238 245 251 251 250 252 255 253 251 253 254 253 253 252 250 250 255 261 260 256 255 254 253
103 104 107 109 112 119 123 119 116 118 120 118 118 118 115 110 107 108 107 101 99 107 115 118 122 129 132 140 130 107 207 223 220 240 247 259 261 252 251 253 254 263 267 256 252 257 261 258 253 253 255 255 254 253 251 252 257 262 260 255 254 254 254
103 104 103 101 102 110 117 119 119 116 113 113 116 116 116 115 115 117 121 118 109 105 111 119 129 140 158 173 159 118 302 253 236 243 248 256 260 261 268 270 266 267 266 256 255 262 267 264 258 254 255 256 255 254 253 250 251 256 258 255 252 250 251
97 101 103 101 99 101 105 109 111 107 99 102 107 109 111 112 109 109 115 121 116 103 85 33 240 232 261 251 212 188 314 283 255 255 259 258 257 254 262 270 265 257 251 252 258 264 264 259 254 254 256 257 255 254 255 252 247 249 254 255 252 250 250
88 89 94 94 94 97 99 96 93 89 86 89 93 95 99 102 104 104 101 104 113 110 84 328 300 285 284 284 267 270 347 326 297 301 293 276 266 258 252 254 258 256 252 251 257 262 261 255 249 247 250 255 256 255 258 257 249 242 243 248 247 245 245
90 86 86 86 85 86 90 91 87 80 78 82 84 86 93 102 106 108 104 96 94 121 145 308 303 295 293 296 285 282 341 316 290 302 303 286 277 271 258 241 248 259 259 260 265 268 266 262 254 246 243 245 248 252 257 258 252 246 242 241 240 236 231
84 83 81 80 77 73 76 81 83 81 79 81 82 81 86 98 105 114 120 114 96 32 323 330 329 315 307 307 298 286 278 276 276 288 298 289 279 273 269 266 265 265 265 268 273 273 272 272 267 260 255 252 249 250 253 254 255 255 250 243 240 237 229
67 67 66 66 64 61 64 68 69 72 76 80 83 79 76 84 100 110 114 120 111 78 342 333 350 355 347 327 313 304 290 281 281 283 284 282 280 279 281 279 269 268 272 277 277 274 273 273 273 273 273 271 266 261 257 256 257 258 256 250 245 242 241
60 59 58 60 60 60 63 68 69 75 80 86 96 95 86 80 80 85 92 102 97 64 29 309 324 348 360 1 350 339 328 311 300 289 278 276 279 280 277 270 268 272 279 282 279 276 273 272 272 273 274 275 274 269 262 258 258 257 256 252 247 242 240